Bedford, MA

5:06 PM EDT on May 29, 2017 (GMT -0400)
Hanscom

Weather History for KBED - January, 2013

Change the Weather History Date:

Friday, January 4, 2013

  Actual Average Record
Temperature  
Mean Temperature 22 °F -  
Max Temperature 36 °F 36 °F 61 °F (2000)
Min Temperature 9 °F 18 °F -11 °F (2014)
Degree Days  
Heating Degree Days 42    
Moisture  
Dew Point 18 °F    
Average Humidity 70    
Maximum Humidity 92    
Minimum Humidity 54    
Precipitation  
Precipitation 0.00 in - - ()
Sea Level Pressure  
Sea Level Pressure 29.93 in    
Wind  
Wind Speed 6 mph (SW)    
Max Wind Speed 17 mph    
Max Gust Speed 29 mph    
Visibility 10 miles    
Events      
Averages and records for this station are not official NWS values.
T = Trace of Precipitation, MM = Missing Value Source: NWS Daily Summary

Daily Weather History Graph

Daily Weather History Graph

Search for Another Location

Airport or City:

Trip Planner

Search our weather history database for the weather conditions in past years. The results will help you decide how hot, cold, wet, or windy it might be!

Date:

Astronomy

Jan. 04, 2013 Rise Set
Actual Time 7:14 AM EST 4:25 PM EST
Civil Twilight 6:43 AM EST 4:57 PM EST
Nautical Twilight 6:07 AM EST 5:32 PM EST
Astronomical Twilight 5:33 AM EST 6:07 PM EST
Moon No Moon Rise 10:46 AM EST (1/4)
Length of Visible Light 10h 14m
Length of Day
9h 11m
Waning Gibbous, 55% of the Moon is Illuminated
Jan 4
Waning Gibbous
Jan 4
Last Quarter
Jan 11
New
Jan 18
First Quarter
Jan 26
Full

Hourly Weather History & Observations

Time (EST) Temp. Windchill Dew Point Humidity Pressure Visibility Wind Dir Wind Speed Gust Speed Precip Events Conditions
12:56 AM 12.0 °F - 9.0 °F 88% 30.01 in 10.0 mi Calm Calm - N/A   Mostly Cloudy
1:56 AM 9.0 °F - 7.0 °F 92% 30.01 in 10.0 mi Calm Calm - N/A   Clear
2:56 AM 9.0 °F 2.4 °F 7.0 °F 92% 30.01 in 10.0 mi WSW 3.5 mph - N/A   Clear
3:56 AM 12.0 °F 4.1 °F 9.0 °F 88% 29.99 in 10.0 mi SW 4.6 mph - N/A   Partly Cloudy
4:56 AM 17.1 °F 8.7 °F 12.0 °F 81% 29.99 in 10.0 mi SW 5.8 mph - N/A   Clear
5:56 AM 19.0 °F 12.3 °F 15.1 °F 85% 29.99 in 10.0 mi WSW 4.6 mph - N/A   Clear
6:56 AM 21.9 °F 13.4 °F 17.1 °F 82% 29.99 in 10.0 mi WSW 6.9 mph - N/A   Clear
7:56 AM 24.1 °F 16.0 °F 18.0 °F 77% 30.01 in 10.0 mi SW 6.9 mph - N/A   Mostly Cloudy
8:56 AM 27.0 °F 18.0 °F 19.9 °F 75% 30.00 in 10.0 mi SW 9.2 mph - N/A   Overcast
9:56 AM 30.9 °F 22.8 °F 21.0 °F 67% 29.99 in 10.0 mi SW 9.2 mph - N/A   Clear
10:56 AM 33.1 °F 23.0 °F 19.9 °F 59% 29.95 in 10.0 mi SW 15.0 mph 20.7 mph N/A   Clear
11:56 AM 35.1 °F 24.8 °F 19.9 °F 54% 29.90 in 10.0 mi WSW 17.3 mph 28.8 mph N/A   Partly Cloudy
12:56 PM 35.1 °F 25.2 °F 21.0 °F 57% 29.87 in 10.0 mi WSW 16.1 mph 25.3 mph N/A   Partly Cloudy
1:56 PM 36.0 °F 27.1 °F 21.0 °F 55% 29.85 in 10.0 mi WSW 13.8 mph 24.2 mph N/A   Clear
2:56 PM 36.0 °F 28.5 °F 23.0 °F 59% 29.85 in 10.0 mi WSW 10.4 mph - N/A   Overcast
3:56 PM 35.1 °F 27.4 °F 23.0 °F 61% 29.86 in 10.0 mi WSW 10.4 mph - N/A   Clear
4:56 PM 35.1 °F 29.3 °F 21.9 °F 59% 29.86 in 10.0 mi WSW 6.9 mph - N/A   Clear
5:56 PM 34.0 °F 28.0 °F 21.9 °F 61% 29.86 in 10.0 mi SW 6.9 mph - N/A   Clear
6:56 PM 32.0 °F 25.6 °F 21.0 °F 64% 29.87 in 10.0 mi SW 6.9 mph - N/A   Clear
7:56 PM 30.9 °F 24.3 °F 21.0 °F 67% 29.87 in 10.0 mi SW 6.9 mph - N/A   Clear
8:56 PM 30.0 °F 23.2 °F 21.0 °F 69% 29.88 in 10.0 mi SW 6.9 mph - N/A   Scattered Clouds
9:56 PM 30.0 °F 26.5 °F 19.9 °F 66% 29.88 in 10.0 mi WSW 3.5 mph - N/A   Partly Cloudy
10:56 PM 30.9 °F 24.3 °F 21.0 °F 67% 29.88 in 10.0 mi SW 6.9 mph - N/A   Overcast
11:56 PM 30.0 °F 23.2 °F 19.0 °F 64% 29.88 in 10.0 mi SW 6.9 mph - N/A   Scattered Clouds